<?xml version="1.0" encoding="UTF-8" standalone="no" ?>
<gpx xmlns="http://www.topografix.com/GPX/1/1" xmlns:xsi="http://www.w3.org/2001/XMLSchema-instance" xsi:schemaLocation="http://www.topografix.com/GPX/1/1 http://www.topografix.com/GPX/1/1/gpx.xsd" version="1.1" creator="VisuGPX - https://www.visugpx.com">
  <metadata>
    <name>Préparation Vallée de l'Ouche</name>
    <desc><![CDATA[Etude de parcours pour une randonnée dans la vallée de l'ouche]]></desc>
  </metadata>
  <trk>
    <name><![CDATA[NewTrackEditing1]]></name>
    <trkseg>
      <trkpt lat="47.1667" lon="4.70063">
        <ele>324.4</ele>
        <time>2017-01-11T13:54:13Z</time>
      </trkpt>
      <trkpt lat="47.16589" lon="4.69943">
        <ele>327.6</ele>
        <time>2017-01-11T13:54:13Z</time>
      </trkpt>
      <trkpt lat="47.16515" lon="4.69845">
        <ele>330.5</ele>
        <time>2017-01-11T13:54:13Z</time>
      </trkpt>
      <trkpt lat="47.16413" lon="4.69731">
        <ele>330.2</ele>
        <time>2017-01-11T13:54:13Z</time>
      </trkpt>
      <trkpt lat="47.16289" lon="4.69648">
        <ele>326.1</ele>
        <time>2017-01-11T13:54:13Z</time>
      </trkpt>
      <trkpt lat="47.16212" lon="4.69663">
        <ele>329</ele>
        <time>2017-01-11T13:54:13Z</time>
      </trkpt>
      <trkpt lat="47.16307" lon="4.69731">
        <ele>329.1</ele>
        <time>2017-01-11T13:54:13Z</time>
      </trkpt>
      <trkpt lat="47.16332" lon="4.69809">
        <ele>331</ele>
        <time>2017-01-11T13:54:13Z</time>
      </trkpt>
      <trkpt lat="47.16328" lon="4.69892">
        <ele>333.2</ele>
        <time>2017-01-11T13:54:13Z</time>
      </trkpt>
      <trkpt lat="47.16268" lon="4.70021">
        <ele>336.2</ele>
        <time>2017-01-11T13:54:13Z</time>
      </trkpt>
      <trkpt lat="47.16194" lon="4.70011">
        <ele>346.3</ele>
        <time>2017-01-11T13:54:13Z</time>
      </trkpt>
      <trkpt lat="47.16071" lon="4.69975">
        <ele>359.4</ele>
        <time>2017-01-11T13:54:13Z</time>
      </trkpt>
      <trkpt lat="47.15951" lon="4.69923">
        <ele>371</ele>
        <time>2017-01-11T13:54:13Z</time>
      </trkpt>
      <trkpt lat="47.15965" lon="4.70006">
        <ele>369.8</ele>
        <time>2017-01-11T13:54:13Z</time>
      </trkpt>
      <trkpt lat="47.1587" lon="4.70016">
        <ele>384.3</ele>
        <time>2017-01-11T13:54:13Z</time>
      </trkpt>
      <trkpt lat="47.15712" lon="4.70021">
        <ele>400</ele>
        <time>2017-01-11T13:54:13Z</time>
      </trkpt>
      <trkpt lat="47.15567" lon="4.70073">
        <ele>403.2</ele>
        <time>2017-01-11T13:54:13Z</time>
      </trkpt>
      <trkpt lat="47.155" lon="4.70141">
        <ele>400.9</ele>
        <time>2017-01-11T13:54:13Z</time>
      </trkpt>
      <trkpt lat="47.15373" lon="4.70198">
        <ele>396.8</ele>
        <time>2017-01-11T13:54:13Z</time>
      </trkpt>
      <trkpt lat="47.1531" lon="4.70234">
        <ele>395.9</ele>
        <time>2017-01-11T13:54:13Z</time>
      </trkpt>
      <trkpt lat="47.15267" lon="4.70151">
        <ele>393.4</ele>
        <time>2017-01-11T13:54:13Z</time>
      </trkpt>
      <trkpt lat="47.15211" lon="4.70058">
        <ele>381.4</ele>
        <time>2017-01-11T13:54:13Z</time>
      </trkpt>
      <trkpt lat="47.15109" lon="4.70011">
        <ele>377.4</ele>
        <time>2017-01-11T13:54:13Z</time>
      </trkpt>
      <trkpt lat="47.14975" lon="4.69965">
        <ele>376.8</ele>
        <time>2017-01-11T13:54:13Z</time>
      </trkpt>
      <trkpt lat="47.14859" lon="4.70063">
        <ele>394.8</ele>
        <time>2017-01-11T13:54:13Z</time>
      </trkpt>
      <trkpt lat="47.14767" lon="4.70146">
        <ele>394.2</ele>
        <time>2017-01-11T13:54:13Z</time>
      </trkpt>
      <trkpt lat="47.14686" lon="4.701">
        <ele>380.1</ele>
        <time>2017-01-11T13:54:13Z</time>
      </trkpt>
      <trkpt lat="47.1464" lon="4.70022">
        <ele>366.4</ele>
        <time>2017-01-11T13:54:13Z</time>
      </trkpt>
      <trkpt lat="47.14538" lon="4.70001">
        <ele>362.5</ele>
        <time>2017-01-11T13:54:13Z</time>
      </trkpt>
      <trkpt lat="47.14538" lon="4.70001">
        <ele>362.5</ele>
        <time>2017-01-11T13:54:13Z</time>
      </trkpt>
      <trkpt lat="47.14538" lon="4.69934">
        <ele>353</ele>
        <time>2017-01-11T13:54:13Z</time>
      </trkpt>
      <trkpt lat="47.14626" lon="4.69882">
        <ele>348.7</ele>
        <time>2017-01-11T13:54:13Z</time>
      </trkpt>
      <trkpt lat="47.14654" lon="4.69809">
        <ele>344.9</ele>
        <time>2017-01-11T13:54:13Z</time>
      </trkpt>
      <trkpt lat="47.14651" lon="4.69737">
        <ele>346.2</ele>
        <time>2017-01-11T13:54:13Z</time>
      </trkpt>
      <trkpt lat="47.14605" lon="4.69711">
        <ele>358.2</ele>
        <time>2017-01-11T13:54:13Z</time>
      </trkpt>
      <trkpt lat="47.14598" lon="4.69628">
        <ele>354.2</ele>
        <time>2017-01-11T13:54:13Z</time>
      </trkpt>
      <trkpt lat="47.14503" lon="4.69586">
        <ele>361.1</ele>
        <time>2017-01-11T13:54:13Z</time>
      </trkpt>
      <trkpt lat="47.14348" lon="4.69612">
        <ele>376.8</ele>
        <time>2017-01-11T13:54:13Z</time>
      </trkpt>
      <trkpt lat="47.14182" lon="4.69597">
        <ele>383.9</ele>
        <time>2017-01-11T13:54:13Z</time>
      </trkpt>
      <trkpt lat="47.14097" lon="4.69633">
        <ele>394.1</ele>
        <time>2017-01-11T13:54:13Z</time>
      </trkpt>
      <trkpt lat="47.14009" lon="4.69571">
        <ele>401.4</ele>
        <time>2017-01-11T13:54:13Z</time>
      </trkpt>
      <trkpt lat="47.1397" lon="4.69519">
        <ele>403.2</ele>
        <time>2017-01-11T13:54:13Z</time>
      </trkpt>
      <trkpt lat="47.13889" lon="4.69473">
        <ele>411.1</ele>
        <time>2017-01-11T13:54:13Z</time>
      </trkpt>
      <trkpt lat="47.13808" lon="4.6941">
        <ele>418.5</ele>
        <time>2017-01-11T13:54:13Z</time>
      </trkpt>
      <trkpt lat="47.13731" lon="4.69317">
        <ele>425.2</ele>
        <time>2017-01-11T13:54:13Z</time>
      </trkpt>
      <trkpt lat="47.13653" lon="4.6927">
        <ele>426.7</ele>
        <time>2017-01-11T13:54:13Z</time>
      </trkpt>
      <trkpt lat="47.136" lon="4.69276">
        <ele>430.3</ele>
        <time>2017-01-11T13:54:13Z</time>
      </trkpt>
      <trkpt lat="47.13512" lon="4.69213">
        <ele>435.1</ele>
        <time>2017-01-11T13:54:13Z</time>
      </trkpt>
      <trkpt lat="47.13392" lon="4.69156">
        <ele>442.2</ele>
        <time>2017-01-11T13:54:13Z</time>
      </trkpt>
      <trkpt lat="47.1336" lon="4.69074">
        <ele>442.6</ele>
        <time>2017-01-11T13:54:13Z</time>
      </trkpt>
      <trkpt lat="47.13265" lon="4.69001">
        <ele>446.7</ele>
        <time>2017-01-11T13:54:13Z</time>
      </trkpt>
      <trkpt lat="47.13128" lon="4.68934">
        <ele>451.4</ele>
        <time>2017-01-11T13:54:13Z</time>
      </trkpt>
      <trkpt lat="47.1304" lon="4.68913">
        <ele>455.9</ele>
        <time>2017-01-11T13:54:13Z</time>
      </trkpt>
      <trkpt lat="47.12997" lon="4.68856">
        <ele>457.2</ele>
        <time>2017-01-11T13:54:13Z</time>
      </trkpt>
      <trkpt lat="47.12927" lon="4.68742">
        <ele>465.4</ele>
        <time>2017-01-11T13:54:13Z</time>
      </trkpt>
      <trkpt lat="47.1286" lon="4.68752">
        <ele>476.2</ele>
        <time>2017-01-11T13:54:13Z</time>
      </trkpt>
      <trkpt lat="47.128" lon="4.68669">
        <ele>483.6</ele>
        <time>2017-01-11T13:54:13Z</time>
      </trkpt>
      <trkpt lat="47.12779" lon="4.68571">
        <ele>480.9</ele>
        <time>2017-01-11T13:54:13Z</time>
      </trkpt>
      <trkpt lat="47.12715" lon="4.68514">
        <ele>484.2</ele>
        <time>2017-01-11T13:54:13Z</time>
      </trkpt>
      <trkpt lat="47.12638" lon="4.68431">
        <ele>480.3</ele>
        <time>2017-01-11T13:54:13Z</time>
      </trkpt>
      <trkpt lat="47.12549" lon="4.68415">
        <ele>492.3</ele>
        <time>2017-01-11T13:54:13Z</time>
      </trkpt>
      <trkpt lat="47.12458" lon="4.68374">
        <ele>494.5</ele>
        <time>2017-01-11T13:54:13Z</time>
      </trkpt>
      <trkpt lat="47.12352" lon="4.68322">
        <ele>496.4</ele>
        <time>2017-01-11T13:54:13Z</time>
      </trkpt>
      <trkpt lat="47.12257" lon="4.68255">
        <ele>496.3</ele>
        <time>2017-01-11T13:54:13Z</time>
      </trkpt>
      <trkpt lat="47.12137" lon="4.68125">
        <ele>485.4</ele>
        <time>2017-01-11T13:54:13Z</time>
      </trkpt>
      <trkpt lat="47.12045" lon="4.68027">
        <ele>466.6</ele>
        <time>2017-01-11T13:54:13Z</time>
      </trkpt>
      <trkpt lat="47.1201" lon="4.67965">
        <ele>450.7</ele>
        <time>2017-01-11T13:54:13Z</time>
      </trkpt>
      <trkpt lat="47.1195" lon="4.67892">
        <ele>437.5</ele>
        <time>2017-01-11T13:54:13Z</time>
      </trkpt>
      <trkpt lat="47.11791" lon="4.67933">
        <ele>465.7</ele>
        <time>2017-01-11T13:54:13Z</time>
      </trkpt>
      <trkpt lat="47.11692" lon="4.67908">
        <ele>482</ele>
        <time>2017-01-11T13:54:13Z</time>
      </trkpt>
      <trkpt lat="47.11597" lon="4.68006">
        <ele>493.2</ele>
        <time>2017-01-11T13:54:13Z</time>
      </trkpt>
      <trkpt lat="47.11537" lon="4.68089">
        <ele>498</ele>
        <time>2017-01-11T13:54:13Z</time>
      </trkpt>
      <trkpt lat="47.11534" lon="4.68027">
        <ele>495.2</ele>
        <time>2017-01-11T13:54:13Z</time>
      </trkpt>
      <trkpt lat="47.11474" lon="4.67985">
        <ele>497.5</ele>
        <time>2017-01-11T13:54:13Z</time>
      </trkpt>
      <trkpt lat="47.11435" lon="4.6796">
        <ele>501.3</ele>
        <time>2017-01-11T13:54:13Z</time>
      </trkpt>
      <trkpt lat="47.11435" lon="4.6796">
        <ele>501.3</ele>
        <time>2017-01-11T13:54:13Z</time>
      </trkpt>
      <trkpt lat="47.11428" lon="4.67763">
        <ele>514.6</ele>
        <time>2017-01-11T13:54:13Z</time>
      </trkpt>
      <trkpt lat="47.11428" lon="4.67763">
        <ele>514.6</ele>
        <time>2017-01-11T13:54:13Z</time>
      </trkpt>
      <trkpt lat="47.11467" lon="4.67721">
        <ele>515.4</ele>
        <time>2017-01-11T13:54:13Z</time>
      </trkpt>
      <trkpt lat="47.11463" lon="4.67659">
        <ele>515.8</ele>
        <time>2017-01-11T13:54:13Z</time>
      </trkpt>
      <trkpt lat="47.11428" lon="4.67763">
        <ele>514.6</ele>
        <time>2017-01-11T13:54:13Z</time>
      </trkpt>
      <trkpt lat="47.11386" lon="4.67711">
        <ele>518.6</ele>
        <time>2017-01-11T13:54:13Z</time>
      </trkpt>
      <trkpt lat="47.11308" lon="4.67763">
        <ele>518.3</ele>
        <time>2017-01-11T13:54:13Z</time>
      </trkpt>
      <trkpt lat="47.11238" lon="4.67768">
        <ele>519.4</ele>
        <time>2017-01-11T13:54:13Z</time>
      </trkpt>
      <trkpt lat="47.11199" lon="4.67778">
        <ele>517.9</ele>
        <time>2017-01-11T13:54:13Z</time>
      </trkpt>
      <trkpt lat="47.11206" lon="4.67861">
        <ele>520.9</ele>
        <time>2017-01-11T13:54:13Z</time>
      </trkpt>
      <trkpt lat="47.11093" lon="4.6783">
        <ele>518.6</ele>
        <time>2017-01-11T13:54:13Z</time>
      </trkpt>
      <trkpt lat="47.1098" lon="4.67825">
        <ele>518</ele>
        <time>2017-01-11T13:54:13Z</time>
      </trkpt>
      <trkpt lat="47.10881" lon="4.67898">
        <ele>521.7</ele>
        <time>2017-01-11T13:54:13Z</time>
      </trkpt>
      <trkpt lat="47.10804" lon="4.67991">
        <ele>522.2</ele>
        <time>2017-01-11T13:54:13Z</time>
      </trkpt>
      <trkpt lat="47.10804" lon="4.67903">
        <ele>515.5</ele>
        <time>2017-01-11T13:54:13Z</time>
      </trkpt>
      <trkpt lat="47.10814" lon="4.67794">
        <ele>502.5</ele>
        <time>2017-01-11T13:54:13Z</time>
      </trkpt>
      <trkpt lat="47.10821" lon="4.67727">
        <ele>488.4</ele>
        <time>2017-01-11T13:54:13Z</time>
      </trkpt>
      <trkpt lat="47.10821" lon="4.67623">
        <ele>461.6</ele>
        <time>2017-01-11T13:54:13Z</time>
      </trkpt>
      <trkpt lat="47.10768" lon="4.67525">
        <ele>442.3</ele>
        <time>2017-01-11T13:54:13Z</time>
      </trkpt>
      <trkpt lat="47.10708" lon="4.67483">
        <ele>435.6</ele>
        <time>2017-01-11T13:54:13Z</time>
      </trkpt>
      <trkpt lat="47.10638" lon="4.67488">
        <ele>439.6</ele>
        <time>2017-01-11T13:54:13Z</time>
      </trkpt>
      <trkpt lat="47.1056" lon="4.67457">
        <ele>430.8</ele>
        <time>2017-01-11T13:54:13Z</time>
      </trkpt>
      <trkpt lat="47.105" lon="4.67369">
        <ele>407.4</ele>
        <time>2017-01-11T13:54:13Z</time>
      </trkpt>
      <trkpt lat="47.10447" lon="4.67307">
        <ele>396.7</ele>
        <time>2017-01-11T13:54:13Z</time>
      </trkpt>
      <trkpt lat="47.10444" lon="4.67229">
        <ele>386.4</ele>
        <time>2017-01-11T13:54:13Z</time>
      </trkpt>
      <trkpt lat="47.10402" lon="4.67198">
        <ele>382.2</ele>
        <time>2017-01-11T13:54:13Z</time>
      </trkpt>
      <trkpt lat="47.10402" lon="4.67198">
        <ele>382.2</ele>
        <time>2017-01-11T13:54:13Z</time>
      </trkpt>
      <trkpt lat="47.10402" lon="4.67198">
        <ele>382.2</ele>
        <time>2017-01-11T13:54:13Z</time>
      </trkpt>
      <trkpt lat="47.10402" lon="4.67198">
        <ele>382.2</ele>
        <time>2017-01-11T13:54:13Z</time>
      </trkpt>
      <trkpt lat="47.10402" lon="4.67198">
        <ele>382.2</ele>
        <time>2017-01-11T13:54:13Z</time>
      </trkpt>
      <trkpt lat="47.10356" lon="4.6697">
        <ele>361.4</ele>
        <time>2017-01-11T13:54:13Z</time>
      </trkpt>
      <trkpt lat="47.10627" lon="4.66965">
        <ele>356.8</ele>
        <time>2017-01-11T13:54:13Z</time>
      </trkpt>
      <trkpt lat="47.10684" lon="4.66706">
        <ele>351.4</ele>
        <time>2017-01-11T13:54:13Z</time>
      </trkpt>
      <trkpt lat="47.10723" lon="4.66488">
        <ele>350.5</ele>
        <time>2017-01-11T13:54:13Z</time>
      </trkpt>
      <trkpt lat="47.1074" lon="4.66281">
        <ele>350.1</ele>
        <time>2017-01-11T13:54:13Z</time>
      </trkpt>
      <trkpt lat="47.10762" lon="4.66068">
        <ele>349.2</ele>
        <time>2017-01-11T13:54:13Z</time>
      </trkpt>
      <trkpt lat="47.10793" lon="4.65944">
        <ele>351.1</ele>
        <time>2017-01-11T13:54:13Z</time>
      </trkpt>
      <trkpt lat="47.1091" lon="4.66042">
        <ele>352.3</ele>
        <time>2017-01-11T13:54:13Z</time>
      </trkpt>
      <trkpt lat="47.11026" lon="4.66141">
        <ele>363.6</ele>
        <time>2017-01-11T13:54:13Z</time>
      </trkpt>
      <trkpt lat="47.11026" lon="4.66141">
        <ele>363.6</ele>
        <time>2017-01-11T13:54:13Z</time>
      </trkpt>
      <trkpt lat="47.11026" lon="4.66141">
        <ele>363.6</ele>
        <time>2017-01-11T13:54:13Z</time>
      </trkpt>
    </trkseg>
  </trk>
</gpx>